FDX334 KMEM-KOKC

Flight info

Callsign FDX334
Flight time 1h 14m
Altitude 30000
Route DUCKZ5 HELAR KOMMA KLUBB DWINE RIFFL3
Aircraft A306/H-SDE3FGHIRWY/LB1

Departure

Time 2026-05-06 19:08
Airport Memphis International Airport (KMEM)

Arrival

Time 2026-05-06 20:22
Airport OKC Will Rogers World Airport (KOKC)
Time Latitude Longitude Altitude Speed Heading
2026-05-06 18:39 35.06030 -89.97354 337 ft 0 kts
2026-05-06 18:53 35.06015 -89.97354 333 ft 4 kts 360°
2026-05-06 18:53 35.06007 -89.97354 331 ft 4 kts 358°
2026-05-06 18:54 35.05980 -89.97352 332 ft 4 kts 351°
2026-05-06 18:54 35.05955 -89.97344 335 ft 4 kts 332°
2026-05-06 18:54 35.05938 -89.97326 331 ft 3 kts 277°
2026-05-06 18:54 35.05937 -89.97323 334 ft 0 kts 272°
2026-05-06 18:57 35.05938 -89.97343 332 ft 7 kts 272°
2026-05-06 18:58 35.05939 -89.97427 333 ft 13 kts 269°
2026-05-06 18:58 35.05894 -89.97499 332 ft 11 kts 182°
2026-05-06 18:58 35.05789 -89.97486 335 ft 17 kts 181°
2026-05-06 18:58 35.05677 -89.97487 334 ft 15 kts 179°
2026-05-06 18:59 35.05577 -89.97486 333 ft 13 kts 180°
2026-05-06 18:59 35.05463 -89.97485 332 ft 23 kts 181°
2026-05-06 18:59 35.05302 -89.97483 331 ft 23 kts 179°
2026-05-06 18:59 35.05151 -89.97479 331 ft 21 kts 180°
2026-05-06 19:00 35.05015 -89.97475 331 ft 19 kts 179°
2026-05-06 19:00 35.04880 -89.97473 330 ft 22 kts 179°
2026-05-06 19:00 35.04735 -89.97468 331 ft 20 kts 181°
2026-05-06 19:00 35.04580 -89.97466 329 ft 22 kts 178°
2026-05-06 19:01 35.04433 -89.97462 332 ft 21 kts 179°
2026-05-06 19:01 35.04290 -89.97442 332 ft 21 kts 166°
2026-05-06 19:01 35.04150 -89.97437 332 ft 21 kts 192°
2026-05-06 19:01 35.04019 -89.97447 332 ft 20 kts 190°
2026-05-06 19:02 35.03842 -89.97459 332 ft 26 kts 177°
2026-05-06 19:02 35.03668 -89.97454 330 ft 24 kts 180°
2026-05-06 19:02 35.03510 -89.97446 331 ft 22 kts 176°
2026-05-06 19:02 35.03366 -89.97442 331 ft 20 kts 179°
2026-05-06 19:03 35.03222 -89.97438 331 ft 24 kts 180°
2026-05-06 19:03 35.03052 -89.97435 331 ft 23 kts 178°
2026-05-06 19:03 35.02897 -89.97432 330 ft 22 kts 179°
2026-05-06 19:03 35.02755 -89.97426 333 ft 19 kts 178°
2026-05-06 19:04 35.02632 -89.97426 332 ft 16 kts 179°
2026-05-06 19:04 35.02533 -89.97422 332 ft 13 kts 178°
2026-05-06 19:04 35.02447 -89.97421 331 ft 11 kts 179°
2026-05-06 19:04 35.02416 -89.97433 331 ft 3 kts 235°
2026-05-06 19:05 35.02415 -89.97452 329 ft 3 kts 266°
2026-05-06 19:05 35.02415 -89.97490 329 ft 9 kts 271°
2026-05-06 19:05 35.02444 -89.97550 330 ft 8 kts 338°
2026-05-06 19:05 35.02470 -89.97554 326 ft 0 kts 358°
2026-05-06 19:07 35.02569 -89.97555 327 ft 48 kts 359°
2026-05-06 19:07 35.03167 -89.97567 327 ft 121 kts 359°
2026-05-06 19:07 35.04199 -89.97587 516 ft 166 kts
2026-05-06 19:08 35.05347 -89.97622 1419 ft 169 kts 358°
2026-05-06 19:08 35.06540 -89.97683 2546 ft 166 kts 357°
2026-05-06 19:08 35.07661 -89.97763 3528 ft 157 kts 344°
2026-05-06 19:08 35.08622 -89.98395 4049 ft 171 kts 319°
2026-05-06 19:09 35.09669 -89.99365 4362 ft 207 kts 317°
2026-05-06 19:09 35.10882 -90.00543 4803 ft 237 kts 317°
2026-05-06 19:09 35.12221 -90.01812 5693 ft 248 kts 317°
2026-05-06 19:09 35.13494 -90.03232 6772 ft 247 kts 305°
2026-05-06 19:10 35.14289 -90.05068 7860 ft 246 kts 283°
2026-05-06 19:10 35.14520 -90.07139 8994 ft 248 kts 272°
2026-05-06 19:10 35.14582 -90.09266 10079 ft 252 kts 270°
2026-05-06 19:10 35.14626 -90.11464 10785 ft 269 kts 269°
2026-05-06 19:11 35.14673 -90.13846 11164 ft 292 kts 269°
2026-05-06 19:11 35.14703 -90.16379 11539 ft 312 kts 268°
2026-05-06 19:11 35.14733 -90.19115 11895 ft 331 kts 268°
2026-05-06 19:11 35.14766 -90.21978 12380 ft 343 kts 267°
2026-05-06 19:12 35.14801 -90.24915 13055 ft 347 kts 267°
2026-05-06 19:12 35.14817 -90.27869 13791 ft 349 kts 264°
2026-05-06 19:12 35.14506 -90.30794 14498 ft 345 kts 254°
2026-05-06 19:12 35.13820 -90.33592 15201 ft 345 kts 250°
2026-05-06 19:13 35.13052 -90.36373 15915 ft 345 kts 250°
2026-05-06 19:13 35.12276 -90.39152 16618 ft 346 kts 250°
2026-05-06 19:13 35.11501 -90.41938 17321 ft 347 kts 250°
2026-05-06 19:13 35.10726 -90.44731 17980 ft 348 kts 251°
2026-05-06 19:14 35.09950 -90.47530 18561 ft 349 kts 251°
2026-05-06 19:14 35.09169 -90.50351 19000 ft 353 kts 251°
2026-05-06 19:14 35.08379 -90.53199 19431 ft 356 kts 251°
2026-05-06 19:14 35.07583 -90.56071 19865 ft 359 kts 251°
2026-05-06 19:15 35.06780 -90.58964 20299 ft 361 kts 251°
2026-05-06 19:15 35.05971 -90.61875 20733 ft 363 kts 251°
2026-05-06 19:15 35.05155 -90.64809 21164 ft 366 kts 251°
2026-05-06 19:15 35.04335 -90.67754 21581 ft 368 kts 251°
2026-05-06 19:16 35.03509 -90.70719 21991 ft 371 kts 251°
2026-05-06 19:16 35.02768 -90.73742 22390 ft 374 kts 256°
2026-05-06 19:16 35.02414 -90.76892 22804 ft 378 kts 264°
2026-05-06 19:16 35.02381 -90.80108 23283 ft 379 kts 267°
2026-05-06 19:17 35.02411 -90.83340 23669 ft 382 kts 267°
2026-05-06 19:17 35.02448 -90.86586 23983 ft 384 kts 267°
2026-05-06 19:17 35.02492 -90.89857 24290 ft 386 kts 267°
2026-05-06 19:17 35.02539 -90.93142 24590 ft 388 kts 267°
2026-05-06 19:18 35.02584 -90.96447 24881 ft 390 kts 267°
2026-05-06 19:18 35.02627 -90.99761 25165 ft 392 kts 267°
2026-05-06 19:18 35.02669 -91.03093 25436 ft 394 kts 267°
2026-05-06 19:18 35.02709 -91.06441 25708 ft 396 kts 267°
2026-05-06 19:19 35.02747 -91.09805 25981 ft 397 kts 267°
2026-05-06 19:19 35.02783 -91.13180 26235 ft 399 kts 267°
2026-05-06 19:19 35.02819 -91.16570 26515 ft 400 kts 267°
2026-05-06 19:19 35.02855 -91.19968 26762 ft 401 kts 267°
2026-05-06 19:20 35.02889 -91.23377 26974 ft 403 kts 267°
2026-05-06 19:20 35.02923 -91.26761 27288 ft 403 kts 267°
2026-05-06 19:20 35.02956 -91.30167 27634 ft 402 kts 267°
2026-05-06 19:20 35.02989 -91.33571 27975 ft 401 kts 267°
2026-05-06 19:21 35.03020 -91.36968 28306 ft 400 kts 267°
2026-05-06 19:21 35.03050 -91.40359 28654 ft 400 kts 266°
2026-05-06 19:21 35.03079 -91.43744 28999 ft 399 kts 266°
2026-05-06 19:21 35.03106 -91.47126 29359 ft 398 kts 266°
2026-05-06 19:22 35.03133 -91.50505 29709 ft 398 kts 266°
2026-05-06 19:22 35.03159 -91.53876 30017 ft 398 kts 266°
2026-05-06 19:22 35.03183 -91.57244 30068 ft 396 kts 266°
2026-05-06 19:23 35.03230 -91.63961 30074 ft 395 kts 266°
2026-05-06 19:23 35.03272 -91.70671 30075 ft 396 kts 266°
2026-05-06 19:24 35.03311 -91.77381 30065 ft 395 kts 266°
2026-05-06 19:24 35.03346 -91.84091 30080 ft 395 kts 266°
2026-05-06 19:25 35.03377 -91.90798 30073 ft 395 kts 266°
2026-05-06 19:25 35.03405 -91.97440 30081 ft 387 kts 265°
2026-05-06 19:25 35.03419 -92.00714 30271 ft 385 kts 265°
2026-05-06 19:26 35.03432 -92.03978 30525 ft 383 kts 265°
2026-05-06 19:26 35.03443 -92.07215 30802 ft 381 kts 265°
2026-05-06 19:26 35.03453 -92.10428 31085 ft 378 kts 265°
2026-05-06 19:26 35.03463 -92.13626 31426 ft 375 kts 265°
2026-05-06 19:27 35.03470 -92.16798 31813 ft 372 kts 265°
2026-05-06 19:27 35.03474 -92.19940 32205 ft 369 kts 265°
2026-05-06 19:27 35.03478 -92.23056 32593 ft 365 kts 265°
2026-05-06 19:27 35.03480 -92.26127 33009 ft 361 kts 265°
2026-05-06 19:28 35.03488 -92.29166 33686 ft 353 kts 264°
2026-05-06 19:28 35.03501 -92.32117 34346 ft 343 kts 264°
2026-05-06 19:28 35.03512 -92.34994 34972 ft 335 kts 264°
2026-05-06 19:28 35.03518 -92.37793 35587 ft 326 kts 264°
2026-05-06 19:29 35.03518 -92.40542 35982 ft 324 kts 264°
2026-05-06 19:29 35.03507 -92.45151 36101 ft 332 kts 264°
2026-05-06 19:30 35.03494 -92.50853 36100 ft 338 kts 264°
2026-05-06 19:30 35.03491 -92.56577 36100 ft 337 kts 264°
2026-05-06 19:31 35.03488 -92.62294 36097 ft 337 kts 264°
2026-05-06 19:31 35.03470 -92.70862 36098 ft 336 kts 264°
2026-05-06 19:32 35.03456 -92.76544 36091 ft 335 kts 264°
2026-05-06 19:32 35.03442 -92.82219 36068 ft 335 kts 264°
2026-05-06 19:33 35.03425 -92.87900 36067 ft 335 kts 264°
2026-05-06 19:33 35.03404 -92.93578 36069 ft 335 kts 264°
2026-05-06 19:34 35.03380 -92.99256 36067 ft 335 kts 264°
2026-05-06 19:34 35.03353 -93.04932 36066 ft 334 kts 264°
2026-05-06 19:35 35.03326 -93.10601 36067 ft 334 kts 263°
2026-05-06 19:35 35.03294 -93.16229 36067 ft 334 kts 263°
2026-05-06 19:36 35.03259 -93.21886 36068 ft 334 kts 263°
2026-05-06 19:36 35.03221 -93.27550 36070 ft 334 kts 263°
2026-05-06 19:37 35.03182 -93.33216 36065 ft 334 kts 263°
2026-05-06 19:37 35.03136 -93.38881 36065 ft 334 kts 263°
2026-05-06 19:38 35.03092 -93.44543 36067 ft 334 kts 263°
2026-05-06 19:38 35.03046 -93.50212 36065 ft 334 kts 263°
2026-05-06 19:39 35.02998 -93.55880 36072 ft 334 kts 263°
2026-05-06 19:39 35.02945 -93.61539 36070 ft 334 kts 263°
2026-05-06 19:40 35.02885 -93.67203 36059 ft 333 kts 263°
2026-05-06 19:40 35.02827 -93.72850 36068 ft 333 kts 263°
2026-05-06 19:41 35.02769 -93.78510 36072 ft 333 kts 263°
2026-05-06 19:41 35.02707 -93.84167 36072 ft 334 kts 263°
2026-05-06 19:42 35.02641 -93.89829 36070 ft 334 kts 263°
2026-05-06 19:42 35.02571 -93.95504 36069 ft 334 kts 263°
2026-05-06 19:43 35.02501 -94.01178 36071 ft 334 kts 263°
2026-05-06 19:43 35.02428 -94.06841 36071 ft 334 kts 263°
2026-05-06 19:44 35.02351 -94.12512 36068 ft 334 kts 263°
2026-05-06 19:44 35.02273 -94.18175 36070 ft 334 kts 263°
2026-05-06 19:45 35.02191 -94.23832 36077 ft 334 kts 263°
2026-05-06 19:45 35.02106 -94.29503 36072 ft 334 kts 263°
2026-05-06 19:46 35.02018 -94.35168 36074 ft 334 kts 263°
2026-05-06 19:46 35.01928 -94.40839 36072 ft 334 kts 263°
2026-05-06 19:47 35.01836 -94.46508 36074 ft 334 kts 263°
2026-05-06 19:47 35.01742 -94.52170 36072 ft 334 kts 263°
2026-05-06 19:48 35.01644 -94.57835 36081 ft 334 kts 263°
2026-05-06 19:48 35.01544 -94.63501 36073 ft 334 kts 263°
2026-05-06 19:49 35.01727 -94.69208 36076 ft 341 kts 269°
2026-05-06 19:49 35.02422 -94.74944 36073 ft 343 kts 270°
2026-05-06 19:50 35.03211 -94.80682 36070 ft 343 kts 270°
2026-05-06 19:50 35.04009 -94.86427 36074 ft 343 kts 270°
2026-05-06 19:51 35.04796 -94.92164 36073 ft 343 kts 270°
2026-05-06 19:51 35.05574 -94.97909 36081 ft 343 kts 270°
2026-05-06 19:52 35.06340 -95.03618 36071 ft 344 kts 270°
2026-05-06 19:52 35.07111 -95.09376 35997 ft 344 kts 270°
2026-05-06 19:53 35.07497 -95.12251 36098 ft 342 kts 270°
2026-05-06 19:53 35.07882 -95.15091 35831 ft 336 kts 270°
2026-05-06 19:53 35.08260 -95.17911 35399 ft 338 kts 270°
2026-05-06 19:53 35.08634 -95.20779 34812 ft 347 kts 269°
2026-05-06 19:54 35.09014 -95.23705 34327 ft 350 kts 269°
2026-05-06 19:54 35.09401 -95.26644 34045 ft 351 kts 269°
2026-05-06 19:54 35.09789 -95.29605 33357 ft 356 kts 269°
2026-05-06 19:54 35.10183 -95.32606 32583 ft 359 kts 270°
2026-05-06 19:55 35.10580 -95.35628 31845 ft 362 kts 270°
2026-05-06 19:55 35.10981 -95.38677 31113 ft 365 kts 270°
2026-05-06 19:55 35.11383 -95.41748 30397 ft 368 kts 271°
2026-05-06 19:55 35.11792 -95.44857 29924 ft 372 kts 271°
2026-05-06 19:56 35.12188 -95.47992 29640 ft 375 kts 271°
2026-05-06 19:56 35.12573 -95.51142 29443 ft 375 kts 271°
2026-05-06 19:56 35.12951 -95.54289 29175 ft 374 kts 271°
2026-05-06 19:56 35.13326 -95.57429 28907 ft 375 kts 271°
2026-05-06 19:57 35.13702 -95.60590 28648 ft 376 kts 271°
2026-05-06 19:57 35.14078 -95.63751 28342 ft 373 kts 271°
2026-05-06 19:57 35.14449 -95.66832 27827 ft 360 kts 271°
2026-05-06 19:57 35.14808 -95.69815 27257 ft 351 kts 271°
2026-05-06 19:58 35.15154 -95.72774 26816 ft 353 kts 270°
2026-05-06 19:58 35.15500 -95.75747 26427 ft 354 kts 271°
2026-05-06 19:58 35.15849 -95.78741 26034 ft 358 kts 271°
2026-05-06 19:58 35.16202 -95.81732 25630 ft 348 kts 271°
2026-05-06 19:59 35.16545 -95.84620 25287 ft 343 kts 271°
2026-05-06 19:59 35.16882 -95.87525 24898 ft 347 kts 271°
2026-05-06 19:59 35.17220 -95.90448 24495 ft 347 kts 271°
2026-05-06 19:59 35.17559 -95.93368 24090 ft 347 kts 271°
2026-05-06 20:00 35.17898 -95.96279 23700 ft 346 kts 271°
2026-05-06 20:00 35.18236 -95.99182 23248 ft 344 kts 271°
2026-05-06 20:00 35.18570 -96.02075 22849 ft 343 kts 271°
2026-05-06 20:00 35.18903 -96.04963 22453 ft 343 kts 271°
2026-05-06 20:01 35.19233 -96.07825 22205 ft 333 kts 271°
2026-05-06 20:01 35.19553 -96.10548 22120 ft 315 kts 271°
2026-05-06 20:01 35.19855 -96.13133 21988 ft 299 kts 271°
2026-05-06 20:01 35.20138 -96.15589 21863 ft 285 kts 270°
2026-05-06 20:02 35.20406 -96.17958 21739 ft 282 kts 270°
2026-05-06 20:02 35.20666 -96.20315 21617 ft 285 kts 270°
2026-05-06 20:02 35.20918 -96.22721 21378 ft 286 kts 270°
2026-05-06 20:02 35.21161 -96.25131 21061 ft 285 kts 270°
2026-05-06 20:03 35.21401 -96.27534 20738 ft 285 kts 270°
2026-05-06 20:03 35.21639 -96.29934 20390 ft 284 kts 270°
2026-05-06 20:03 35.21877 -96.32327 20095 ft 284 kts 270°
2026-05-06 20:03 35.22115 -96.34721 19807 ft 284 kts 270°
2026-05-06 20:04 35.22352 -96.37114 19504 ft 283 kts 270°
2026-05-06 20:04 35.22588 -96.39500 19209 ft 283 kts 270°
2026-05-06 20:04 35.22824 -96.41893 18902 ft 282 kts 270°
2026-05-06 20:04 35.23059 -96.44272 18609 ft 282 kts 270°
2026-05-06 20:05 35.23293 -96.46653 18317 ft 282 kts 270°
2026-05-06 20:05 35.23527 -96.49032 17985 ft 282 kts 271°
2026-05-06 20:05 35.23760 -96.51410 17704 ft 281 kts 271°
2026-05-06 20:05 35.23991 -96.53776 17413 ft 281 kts 270°
2026-05-06 20:06 35.24222 -96.56146 17113 ft 280 kts 270°
2026-05-06 20:06 35.24452 -96.58510 16803 ft 280 kts 270°
2026-05-06 20:06 35.24680 -96.60868 16511 ft 279 kts 270°
2026-05-06 20:06 35.24873 -96.63220 16217 ft 277 kts 268°
2026-05-06 20:07 35.25001 -96.65570 15930 ft 277 kts 268°
2026-05-06 20:07 35.25112 -96.67922 15646 ft 276 kts 267°
2026-05-06 20:07 35.25222 -96.70260 15385 ft 272 kts 267°
2026-05-06 20:07 35.25330 -96.72507 15297 ft 257 kts 267°
2026-05-06 20:08 35.25433 -96.74644 15186 ft 246 kts 267°
2026-05-06 20:08 35.25528 -96.76694 15074 ft 236 kts 266°
2026-05-06 20:08 35.25618 -96.78691 14924 ft 235 kts 266°
2026-05-06 20:08 35.25706 -96.80700 14675 ft 237 kts 266°
2026-05-06 20:09 35.25795 -96.82712 14431 ft 238 kts 266°
2026-05-06 20:09 35.25886 -96.84733 14210 ft 238 kts 266°
2026-05-06 20:09 35.25976 -96.86762 13979 ft 239 kts 266°
2026-05-06 20:09 35.26068 -96.88797 13713 ft 240 kts 266°
2026-05-06 20:10 35.26159 -96.90830 13454 ft 240 kts 266°
2026-05-06 20:10 35.26251 -96.92869 13206 ft 240 kts 267°
2026-05-06 20:10 35.26342 -96.94908 12946 ft 242 kts 267°
2026-05-06 20:10 35.26432 -96.97030 12539 ft 257 kts 268°
2026-05-06 20:11 35.26528 -96.99236 12113 ft 262 kts 268°
2026-05-06 20:11 35.26628 -97.01461 11693 ft 262 kts 269°
2026-05-06 20:11 35.26727 -97.03662 11280 ft 262 kts 269°
2026-05-06 20:11 35.26829 -97.05919 10865 ft 262 kts 269°
2026-05-06 20:12 35.26926 -97.08103 10347 ft 259 kts 270°
2026-05-06 20:12 35.27025 -97.10303 9776 ft 252 kts 271°
2026-05-06 20:12 35.27120 -97.12423 9209 ft 247 kts 271°
2026-05-06 20:12 35.27095 -97.14488 8599 ft 244 kts 261°
2026-05-06 20:13 35.26733 -97.16520 7997 ft 241 kts 255°
2026-05-06 20:13 35.26275 -97.18480 7366 ft 244 kts 254°
2026-05-06 20:13 35.25795 -97.20466 6904 ft 243 kts 255°
2026-05-06 20:13 35.25318 -97.22447 6572 ft 243 kts 255°
2026-05-06 20:14 35.24843 -97.24427 6242 ft 243 kts 255°
2026-05-06 20:14 35.24370 -97.26414 5890 ft 244 kts 255°
2026-05-06 20:14 35.23892 -97.28418 5522 ft 246 kts 256°
2026-05-06 20:14 35.23442 -97.30433 5175 ft 246 kts 261°
2026-05-06 20:15 35.23257 -97.32485 4861 ft 239 kts 269°
2026-05-06 20:15 35.23155 -97.34481 4594 ft 230 kts 271°
2026-05-06 20:15 35.23077 -97.36401 4348 ft 221 kts 271°
2026-05-06 20:15 35.23015 -97.38229 4219 ft 210 kts 272°
2026-05-06 20:16 35.22963 -97.40027 4135 ft 217 kts 272°
2026-05-06 20:16 35.22930 -97.41270 4073 ft 222 kts 272°
2026-05-06 20:16 35.22879 -97.43167 4010 ft 224 kts 271°
2026-05-06 20:16 35.22825 -97.45075 3997 ft 225 kts 271°
2026-05-06 20:17 35.22772 -97.46993 4001 ft 225 kts 271°
2026-05-06 20:17 35.22720 -97.48899 4000 ft 224 kts 271°
2026-05-06 20:17 35.22666 -97.50794 4018 ft 223 kts 272°
2026-05-06 20:17 35.22663 -97.52686 4022 ft 221 kts 278°
2026-05-06 20:18 35.22864 -97.54544 4028 ft 220 kts 283°
2026-05-06 20:18 35.23084 -97.56392 4017 ft 213 kts 285°
2026-05-06 20:18 35.23736 -97.57833 3978 ft 186 kts 327°
2026-05-06 20:18 35.24857 -97.58518 3817 ft 178 kts 346°
2026-05-06 20:19 35.26053 -97.58849 3590 ft 175 kts 359°
2026-05-06 20:19 35.27265 -97.58870 3362 ft 173 kts
2026-05-06 20:19 35.28452 -97.58875 3116 ft 169 kts
2026-05-06 20:19 35.29618 -97.58882 2924 ft 165 kts
2026-05-06 20:20 35.30742 -97.58882 2683 ft 156 kts
2026-05-06 20:20 35.31812 -97.58878 2504 ft 152 kts
2026-05-06 20:20 35.32835 -97.58904 2318 ft 140 kts
2026-05-06 20:20 35.33771 -97.58912 2087 ft 130 kts
2026-05-06 20:21 35.34728 -97.58910 1933 ft 144 kts
2026-05-06 20:21 35.35749 -97.58889 1736 ft 147 kts
2026-05-06 20:21 35.36773 -97.58888 1579 ft 145 kts
2026-05-06 20:21 35.37753 -97.58895 1347 ft 140 kts
2026-05-06 20:22 35.38667 -97.58892 1300 ft 115 kts 359°
2026-05-06 20:22 35.39302 -97.58894 1298 ft 74 kts 359°
2026-05-06 20:22 35.39680 -97.58898 1297 ft 19 kts 344°
2026-05-06 20:22 35.39718 -97.58988 1299 ft 7 kts 274°
2026-05-06 20:23 35.39718 -97.59086 1301 ft 15 kts 270°
2026-05-06 20:23 35.39754 -97.59142 1302 ft 7 kts 348°
2026-05-06 20:23 35.39812 -97.59147 1302 ft 16 kts 359°
2026-05-06 20:23 35.39922 -97.59147 1301 ft 13 kts
2026-05-06 20:24 35.39967 -97.59166 1301 ft 4 kts 297°
2026-05-06 20:24 35.39971 -97.59215 1302 ft 4 kts 269°
2026-05-06 20:24 35.39971 -97.59226 1301 ft 0 kts 270°